Orbital Elements at Epoch 2459200.5 (2020-Dec-17.0) TDB
Reference: JPL 14 (heliocentric ecliptic J2000)
Element | Value | Uncertainty (1-sigma) | Units |
e | .2009160948101209 | 4.7253e-08 | |
a | 2.371404047333251 | 1.2109e-08 | au |
q | 1.894950806926139 | 1.104e-07 | au |
i | 3.858997656608955 | 5.5149e-06 | deg |
node | 346.7039863656086 | 7.3289e-05 | deg |
peri | 51.66619893910674 | 7.4543e-05 | deg |
M | 24.75107940728218 | 1.2276e-05 | deg |
tp | 2459108.793861950559 (2020-Sep-16.29386195) | 4.5469e-05 | TDB |
period | 1333.849290147951 3.65 | 1.0217e-05 2.797e-08 | d yr |
n | .2698955591602621 | 2.0673e-09 | deg/d |
Q | 2.847857287740363 | 1.4542e-08 | au |
|
| | Orbit Determination Parameters
Additional Information
|